Regional Weather Roundup
Issued by NWS

Home | Current Version | Previous Version | Graphics & Text | Print | Product List | Glossary On
Versions: 1 2 3 4 5 6 7 8 9 10 11 12 13 14 15 16 17 18 19 20 21 22 23 24 25 26 27 28 29 30 31 32 33 34 35 36 37 38 39 40 41 42 43 44 45 46 47 48 49 50
000
ASUS43 KIND 060209
RWRIN

WEATHER ROUNDUP FOR INDIANA
NATIONAL WEATHER SERVICE INDIANAPOLIS IN
1000 PM EDT SUN JUL 05 2015

NOTE: "FAIR" INDICATES FEW OR NO CLOUDS BELOW 12,000 FEET WITH NO
SIGNIFICANT WEATHER AND/OR OBSTRUCTIONS TO VISIBILITY.

* - STATION DOES NOT REPORT WEATHER SUCH AS PRECIPITATION OR FOG.

+ - STATION NOT QUALITY CONTROLLED BY THE NATIONAL WEATHER SERVICE.
    USE DATA WITH CAUTION...ESPECIALLY DEWPOINT AND RELATIVE
    HUMIDITY OBSERVATIONS.

INZ001>003-010>013-019-020-060300-
NORTHWEST INDIANA

CITY           SKY/WX    TMP DP  RH WIND       PRES   REMARKS
GARY /AIRPORT/ PTCLDY   N/A N/A N/A SE5       30.03F
KNOX *+        CLEAR     70  63  78 SE5       30.04S
LA PORTE +     CLEAR     73  64  74 CALM      30.05S
MICHIGAN CITY+ CLEAR     70  61  73 CALM      30.04S
MONTICELLO +   CLEAR     73  66  79 CALM      30.04S
RENSSELAER +   CLEAR     72  68  88 SE3       30.05S
VALPARAISO     CLEAR     74  61  63 S5        30.05S

$$

LMZ046-743>745-060300-
SOUTHERN LAKE MICHIGAN

STATION/POSITION TIME  TEMP    WIND        PRES    WAVE
                       AIR SEA DIR/SP/G            HT
                 (UTC) (F)     (DEG/KT/KT) (MB)    (FT)
BURNS HARBOR     0200   71      CALM  /  2 1017.3S
MICHIGAN CITY    0200   76     110/  3/  3   N/A
5NW MICH CITY    0200   69 67  100/  4/  4   N/A     1

$$

INZ004-005-014>016-021>024-060300-
NORTH CENTRAL INDIANA

CITY           SKY/WX    TMP DP  RH WIND       PRES   REMARKS
GOSHEN         PTCLDY    70  63  78 CALM      30.06R
LOGANSPORT +   FAIR      72  64  78 CALM      30.06S HAZE
PERU/GRISSOM   CLEAR     71  64  78 S5        30.06R
ROCHESTER +    PTCLDY    73  68  83 CALM      30.07R
SOUTH BEND     CLEAR     75  61  61 S3        30.06R
WARSAW +         N/A     72  61  68 CALM      30.07R

$$

INZ006>009-017-018-025>027-060300-
NORTHEAST INDIANA

CITY           SKY/WX    TMP DP  RH WIND       PRES   REMARKS
ANGOLA *+        N/A     72  61  68 SE3       30.08R
AUBURN +       PTCLDY    68  59  73 CALM      30.08S
FORT WAYNE     MOCLDY    71  63  75 CALM      30.07S
HUNTINGTON +   PTCLDY    69  64  85 CALM      30.06S

$$

INZ028-029-035-036-043>045-051>053-060300-
WEST CENTRAL INDIANA

CITY           SKY/WX    TMP DP  RH WIND       PRES   REMARKS
CRAWFORDSVL +  CLEAR     68  65  90 SE5       30.07R
GREENCASTLE +  PTCLDY    70  63  78 CALM      30.07R
LAFAYETTE      CLEAR     71  63  75 CALM      30.04R
TERRE HAUTE    PTCLDY    74  68  81 SE3       30.05R

$$

INZ030>032-037>040-046>048-054>057-064-065-060300-
CENTRAL INDIANA

CITY           SKY/WX    TMP DP  RH WIND       PRES   REMARKS
CP ATTERBURY + PTCLDY    68  63  83 CALM      30.08R
FRANKFORT +    PTCLDY    70  66  85 SE5       30.08S
GREENWOOD *+   MOCLDY    70  61  73 CALM      30.08R
INDIANAPOLIS   MOCLDY    74  60  61 SE5       30.06R
-EAGLE CREEK   MOCLDY    75  58  55 CALM      30.06R
KOKOMO *+      MOCLDY    72  64  78 S5        30.06S
MARION +       MOCLDY    69  64  84 CALM      30.08S
MT COMFORT *+  PTCLDY    66 N/A N/A CALM      30.08S
SHELBYVILLE    PTCLDY    70  64  81 CALM      30.06S
ZIONSVILLE +   MOCLDY    71  62  73 CALM      30.08S

$$

INZ033-034-041-042-049-050-058-059-060300-
EAST CENTRAL INDIANA

CITY           SKY/WX    TMP DP  RH WIND       PRES   REMARKS
MUNCIE         PTCLDY    72  61  68 CALM      30.08R

$$

INZ060-061-067>069-081>083-085>088-060300-
SOUTHWEST INDIANA

CITY           SKY/WX    TMP DP  RH WIND       PRES   REMARKS
EVANSVILLE     PTCLDY    77  70  79 CALM      30.05R HAZE
HUNTINGBURG *+ CLEAR     73  68  83 SE3       30.06R
WASHINGTON +   CLEAR     72  68  88 CALM      30.05R

$$

INZ062-063-066-070>080-084-089>092-060300-
SOUTH CENTRAL AND SOUTHEAST INDIANA

CITY           SKY/WX    TMP DP  RH WIND       PRES   REMARKS
BLOOMINGTON    PTCLDY    70  67  90 CALM      30.07R
MADISON *+     PTCLDY    68  64  88 CALM      30.10R
NORTH VERNON + PTCLDY    68  68 100 CALM      30.08R
SEYMOUR +      PTCLDY    70  68  94 CALM      30.06S

$$




USA.gov is the U.S. government's official web portal to all federal, state and local government web resources and services.